Regional Weather Roundup
Issued by NWS

Home | Current Version | Previous Version | Text Only | Print | Product List | Glossary On
Versions: 1 2 3 4 5 6 7 8 9 10 11 12 13 14 15 16 17 18 19 20 21 22 23 24 25 26 27 28 29 30 31 32 33 34 35 36 37 38 39 40 41 42 43 44 45 46 47 48 49 50
000
ASUS43 KLSX 190559
RWRMO

WEATHER SUMMARY FOR MISSOURI
NATIONAL WEATHER SERVICE SPRINGFIELD MO
100 AM CDT FRI SEP 19 2014

NOTE: "FAIR" INDICATES FEW OR NO CLOUDS BELOW 12,000 FEET WITH NO
       SIGNIFICANT WEATHER AND/OR OBSTRUCTIONS TO VISIBILITY.
       CURRENT SKY AND/OR WEATHER CONDITIONS ARE NOT AVAILABLE FOR
       CHILLICOTHE AND FARMINGTON.

MOZ001>031-035>038-043-044-053-054-190700-
...NORTHERN AND WESTERN MISSOURI...

CITY           SKY/WX    TMP DP  RH WIND       PRES   REMARKS
KANSAS CTY INT CLEAR     61  60  97 SE8       30.02S
6HR MIN TEMP:  60; 6HR MAX TEMP:  66;

KANSAS C DTWN  CLEAR     62  60  93 E5        30.02R FOG
6HR MIN TEMP:  62; 6HR MAX TEMP:  68;

LEE`S SUMMIT   CLEAR     61  60  97 CALM      30.04R
6HR MIN TEMP:  61; 6HR MAX TEMP:  66;

ST JOSEPH      CLEAR     60  58  92 SE7       30.02S
6HR MIN TEMP:  58; 6HR MAX TEMP:  67;

KIRKSVILLE     CLEAR     57  53  86 E6        30.08S
6HR MIN TEMP:  53; 6HR MAX TEMP:  65;


$$
MOZ066>068-077>081-088>096-101>105-190700-
...SOUTHWEST MISSOURI...

CITY           SKY/WX    TMP DP  RH WIND       PRES   REMARKS
SPRINGFIELD    CLEAR     63  60  90 SE9       30.04F
6HR MIN TEMP:  63; 6HR MAX TEMP:  69;

JOPLIN         MOCLDY    64  61  90 SE8       30.02F
6HR MIN TEMP:  63; 6HR MAX TEMP:  72;


$$
MOZ032>034-039>042-045>050-055>058-069>072-190700-
...CENTRAL MISSOURI...

CITY           SKY/WX    TMP DP  RH WIND       PRES   REMARKS
COLUMBIA       PTCLDY    59  57  93 E5          N/A
6HR MIN TEMP:  59; 6HR MAX TEMP:  68;

JEFFERSON CITY CLOUDY    61  58  90 CALM      30.06S
6HR MIN TEMP:  60; 6HR MAX TEMP:  70;

ROLLA          CLEAR     58  57  97 E5        30.06S FOG
6HR MIN TEMP:  56; 6HR MAX TEMP:  65;

SEDALIA        FOG       60  58  92 E7        30.04F VSB 1/4
6HR MIN TEMP:  59; 6HR MAX TEMP:  69;

OSAGE BEACH    CLEAR     59  55  88 CALM      30.06S

$$
MOZ051-052-059>065-190700-
...EAST CENTRAL MISSOURI...

CITY           SKY/WX    TMP DP  RH WIND       PRES   REMARKS
ST LOUIS INTL  CLEAR     61  54  77 E6        30.08S
6HR MIN TEMP:  61; 6HR MAX TEMP:  71;

SPIRIT OF STL  CLEAR     53  53 100 CALM      30.07R FOG
6HR MIN TEMP:  53; 6HR MAX TEMP:  65;

ST CHARLES     CLEAR     56  55  97 CALM      30.08R FOG
6HR MIN TEMP:  54; 6HR MAX TEMP:  70;


$$
MOZ072>076-082>087-097>100-106>115-190700-
...SOUTH CENTRAL AND SOUTHEAST MISSOURI...

CITY           SKY/WX    TMP DP  RH WIND       PRES   REMARKS
CAPE GIRARDEAU CLEAR     56  55  97 CALM      30.06R FOG
6HR MIN TEMP:  56; 6HR MAX TEMP:  70;

FARMINGTON     MOCLDY    57  54  88 CALM      30.09S
6HR MIN TEMP:  57; 6HR MAX TEMP:  70;

POPLAR BLUFF   CLEAR     61  56  83 NE5       30.03S
6HR MIN TEMP:  59; 6HR MAX TEMP:  69;

WEST PLAINS    FOG       57  55  93 CALM      30.07S VSB 1/4
6HR MIN TEMP:  56; 6HR MAX TEMP:  65;


$$


USA.gov is the U.S. government's official web portal to all federal, state and local government web resources and services.